[[{"header":{"parameterUnit":"m.s-1","parameterCategory":1,"la1":30.2991,"la2":30.254,"lo1":-89.0895,"lo2":-89.0444,"dy":0.0017,"dx":0.0017,"nx":28,"ny":28,"refTime":"2025-01-20T03:00:00:Z","depth":0,"parameterNumber":2,"parameterNumberName":"U-component_of_WINDS"},"data":[0,0,0,0,0,0,0,0,0,0,0,0,0,0,0,0,0,0,0,0,0,0,0,0,0,0,0,0,0,0,0,0,0,0,0,0,0,0,0,0,0,0,0,0,0,0,0,0,0,0,0,0,0,0,0,0,0,0,-1.5541,-1.5542,0,-1.5654,-1.5656,-1.5657,-1.5636,-1.5634,-1.5632,-1.563,-1.575,-1.5755,-1.576,0,0,0,0,0,0,0,0,0,0,0,0,0,-1.5308,-1.5312,-1.554,-1.5542,-1.5543,-1.5654,-1.5656,-1.5657,-1.5636,-1.5634,-1.5631,-1.5629,-1.5749,-1.5755,-1.5761,0,0,0,0,0,0,0,0,0,0,0,0,0,-1.5414,-1.5314,-1.554,-1.5546,-1.5548,-1.5654,-1.5656,-1.5658,-1.5637,-1.5634,-1.5631,-1.5628,-1.5747,-1.5754,-1.5762,-1.587,0,0,-1.5785,-1.5788,0,0,0,0,0,0,0,0,-1.5408,-1.5423,-1.5544,-1.5546,-1.5548,-1.5628,-1.5618,-1.5729,-1.5638,-1.5603,-1.563,-1.5626,-1.5712,-1.5723,-1.5751,-1.5876,-1.5881,-1.5786,-1.579,-1.5794,-1.5796,0,0,0,0,0,0,0,-1.5401,-1.5418,-1.5586,-1.5546,-1.5548,-1.5544,-1.5556,-1.5639,-1.5674,-1.5606,-1.5605,-1.5618,-1.5713,-1.5743,-1.5753,-1.5883,-1.5785,-1.5792,-1.5797,-1.58,-1.6102,-1.6105,0,0,0,0,0,0,-1.5391,-1.5412,-1.5582,-1.5589,-1.5469,-1.5551,-1.5564,-1.5605,-1.5673,-1.568,-1.5621,-1.5617,-1.5732,-1.5745,-1.5758,-1.589,-1.5794,-1.5801,-1.5805,-1.6099,-1.6103,-1.6107,0,0,0,0,0,0,-1.5386,-1.5406,-1.5577,-1.55,-1.5521,-1.5558,-1.5605,-1.5609,-1.564,-1.5684,-1.569,-1.5646,-1.573,-1.5747,-1.5842,-1.5893,-1.5804,-1.5811,-1.6095,-1.61,-1.6105,-1.6154,0,0,0,0,0,0,-1.5379,-1.5405,-1.5446,-1.5501,-1.5526,-1.566,-1.5608,-1.5614,-1.5653,-1.5649,-1.5709,-1.5716,-1.5729,-1.5831,-1.585,-1.5902,-1.5817,-1.609,-1.6097,-1.6103,-1.6148,-1.616,-1.617,0,0,0,0,0,-1.5371,-1.5456,-1.5448,-1.5469,-1.5578,-1.5662,-1.5677,-1.5689,-1.5657,-1.5699,-1.5727,-1.5714,-1.5884,-1.5841,-1.5862,-1.5918,-1.6087,-1.6095,-1.6103,-1.6143,-1.6158,-1.617,0,0,0,0,0,0,-1.5408,-1.5463,-1.5455,-1.556,-1.5607,-1.5659,-1.5712,-1.5704,-1.5762,-1.5756,-1.577,-1.5783,-1.588,-1.5908,-1.5859,-1.6026,-1.5981,-1.5993,-1.6005,-1.6019,-1.603,-1.6022,-1.5823,0,0,0,0,0,-1.5428,-1.5491,-1.5536,-1.5625,-1.5648,-1.5676,-1.5714,-1.5719,-1.5768,-1.5788,-1.5823,-1.5872,-1.5936,-1.5979,-1.6041,-1.6151,-1.6164,-1.6199,-1.6211,-1.622,-1.6231,-1.6292,-1.6308,-1.6132,-1.6132,-1.6132,0,0,-1.547,-1.5508,-1.5548,-1.5633,-1.5669,-1.5736,-1.5693,-1.5765,-1.5814,-1.5799,-1.5891,-1.5918,-1.5974,-1.6077,-1.6124,-1.6103,-1.6282,-1.623,-1.6236,-1.6243,-1.6301,-1.6318,-1.6333,-1.6137,-1.6136,-1.6135,0,0,-1.5582,-1.5617,-1.5694,-1.5731,-1.5786,-1.5804,-1.5822,-1.5876,-1.5893,-1.5985,-1.5974,-1.6033,-1.6144,-1.6184,-1.6219,-1.6344,-1.6334,-1.6363,-1.6424,-1.6482,-1.6496,-1.6509,-1.6554,-1.657,-1.6374,-1.6374,-1.6374,0,-1.5629,-1.5727,-1.5736,-1.5808,-1.5846,-1.5833,-1.5912,-1.5948,-1.6021,-1.6048,-1.6023,-1.6161,-1.6197,-1.631,-1.634,-1.6368,-1.639,-1.6358,-1.6493,-1.6506,-1.6518,-1.6561,-1.6578,-1.6377,-1.6377,-1.6377,-1.6376,0,-1.5782,-1.585,-1.5906,-1.5976,-1.602,-1.6095,-1.6116,-1.6159,-1.616,-1.618,-1.6274,-1.6317,-1.6387,-1.6414,-1.6416,-1.6527,-1.6512,-1.649,-1.6446,-1.6538,-1.6579,-1.6596,-1.6382,-1.6381,-1.638,-1.6379,0,0,-1.5924,-1.5994,-1.6015,-1.6046,-1.6105,-1.6158,-1.6233,-1.63,-1.6338,-1.6388,-1.6452,-1.6544,-1.6524,-1.6563,-1.6569,-1.6621,-1.6718,-1.6592,-1.6594,-1.6616,-1.6844,-1.6861,-1.688,-1.671,-1.6714,-1.6716,-1.6839,0,-1.6042,-1.6173,-1.6182,-1.6301,-1.6364,-1.6351,-1.6416,-1.646,-1.6481,-1.6538,-1.6561,-1.6627,-1.6594,-1.6618,-1.6668,-1.6695,-1.6764,-1.6686,-1.6772,-1.6775,-1.676,-1.6902,-1.6921,-1.7035,-1.6855,-1.6858,-1.686,0,-1.6199,-1.6252,-1.6377,-1.6426,-1.6453,-1.6511,-1.6573,-1.6627,-1.6676,-1.6688,-1.673,-1.6729,-1.6806,-1.6757,-1.6864,-1.6811,-1.6846,-1.6864,-1.6869,-1.688,-1.6825,-1.6918,-1.7072,-1.709,-1.6885,-1.6883,-1.6882,0,-1.6291,-1.6394,-1.6482,-1.6508,-1.6568,-1.6609,-1.6636,-1.6681,-1.6721,-1.6775,-1.68,-1.6863,-1.6898,-1.6947,-1.6962,-1.6925,-1.7069,-1.7021,-1.7082,-1.7082,-1.7115,-1.7113,-1.7279,-1.7134,-1.7134,-1.7134,-1.7133,0,-1.6424,-1.6501,-1.6524,-1.6578,-1.6664,-1.6673,-1.6759,-1.6783,-1.6823,-1.6883,-1.6875,-1.6931,-1.6947,-1.7006,-1.7018,-1.7106,-1.7121,-1.7133,-1.7136,-1.7135,-1.7134,-1.716,-1.7154,-1.7138,-1.7137,-1.7136,-1.7136,0,-1.6543,-1.6561,-1.6656,-1.6703,-1.6717,-1.6778,-1.6819,-1.6872,-1.689,-1.6965,-1.6983,-1.7013,-1.7082,-1.7101,-1.7184,-1.7192,-1.7295,-1.729,-1.7279,-1.7279,-1.734,-1.7334,-1.753,-1.7557,-1.7392,-1.7394,-1.7395,0,-1.6628,-1.6687,-1.6739,-1.6778,-1.6806,-1.6868,-1.6908,-1.6918,-1.696,-1.7019,-1.7065,-1.7132,-1.7187,-1.7298,-1.7327,-1.7391,-1.7388,-1.7452,-1.7398,-1.7395,-1.7391,-1.7388,-1.7394,-1.7463,-1.7465,-1.7466,-1.7467,0,-1.6777,-1.6783,-1.6839,-1.6899,-1.6946,-1.6994,-1.7041,-1.7073,-1.709,-1.7137,-1.7207,-1.7249,-1.7332,-1.74,-1.7464,-1.7492,-1.7484,-1.7483,-1.7501,-1.7502,-1.7494,-1.7501,-1.7309,-1.748,-1.7479,-1.7478,-1.7477,-1.7477,-1.6883,-1.6935,-1.698,-1.7043,-1.7078,-1.7121,-1.7173,-1.7196,-1.7254,-1.7322,-1.7325,-1.74,-1.7447,-1.7531,-1.7562,-1.7622,-1.7603,-1.7629,-1.7636,-1.7642,-1.7648,-1.7482,-1.7634,-1.7633,-1.7633,-1.7633,-1.7632,0,-1.7033,-1.7061,-1.7119,-1.7183,-1.7233,-1.7217,-1.7267,-1.731,-1.7376,-1.742,-1.7473,-1.7553,-1.7618,-1.7651,-1.7715,-1.7757,-1.7755,-1.7774,-1.7772,-1.7779,-1.7661,-1.764,-1.7775,-1.7775,-1.7775,-1.7774,-1.7774,-1.7774,-1.7118,-1.7204,-1.7215,-1.7319,-1.7346,-1.7419,-1.7449,-1.7488,-1.7523,-1.7612,-1.7665,-1.7685,-1.7725,-1.7792,-1.7851,-1.7859,-1.7884,-1.7906,-1.7912,-1.7801,-1.7787,-1.7773,-1.7754,-1.7911,-1.7911,-1.8025,-1.8026,-1.8027]},{"header":{"parameterUnit":"m.s-1","parameterCategory":1,"la1":30.2991,"la2":30.254,"lo1":-89.0895,"lo2":-89.0444,"dy":0.0017,"dx":0.0017,"nx":28,"ny":28,"refTime":"2025-01-20T03:00:00:Z","depth":0,"parameterNumber":3,"parameterNumberName":"V-component_of_WINDS"},"data":[0,0,0,0,0,0,0,0,0,0,0,0,0,0,0,0,0,0,0,0,0,0,0,0,0,0,0,0,0,0,0,0,0,0,0,0,0,0,0,0,0,0,0,0,0,0,0,0,0,0,0,0,0,0,0,0,0,0,-9.4904,-9.4906,0,-9.5065,-9.5067,-9.5069,-9.4946,-9.4941,-9.4935,-9.493,-9.5088,-9.5097,-9.5106,0,0,0,0,0,0,0,0,0,0,0,0,0,-9.4484,-9.4492,-9.4904,-9.4906,-9.4908,-9.5065,-9.5067,-9.5069,-9.4947,-9.494,-9.4934,-9.4928,-9.5085,-9.5096,-9.5107,0,0,0,0,0,0,0,0,0,0,0,0,0,-9.4658,-9.4495,-9.4904,-9.4866,-9.4864,-9.5064,-9.5067,-9.507,-9.4948,-9.494,-9.4932,-9.4925,-9.5081,-9.5095,-9.5108,-9.5352,0,0,-9.515,-9.5156,0,0,0,0,0,0,0,0,-9.4648,-9.4673,-9.487,-9.4869,-9.4868,-9.4977,-9.4976,-9.5164,-9.495,-9.4916,-9.493,-9.4921,-9.5057,-9.5072,-9.512,-9.5359,-9.5366,-9.5151,-9.516,-9.5166,-9.5169,0,0,0,0,0,0,0,-9.4636,-9.4666,-9.4967,-9.4873,-9.4871,-9.4839,-9.4855,-9.5011,-9.5029,-9.4919,-9.491,-9.4931,-9.5055,-9.5107,-9.5123,-9.5368,-9.5151,-9.5163,-9.5172,-9.5177,-9.5814,-9.5822,0,0,0,0,0,0,-9.4629,-9.4656,-9.4962,-9.4972,-9.4736,-9.4853,-9.4871,-9.495,-9.5027,-9.5031,-9.4938,-9.4925,-9.5087,-9.5107,-9.5128,-9.5418,-9.5165,-9.5178,-9.5186,-9.5805,-9.5816,-9.5825,0,0,0,0,0,0,-9.462,-9.4657,-9.4956,-9.4812,-9.4848,-9.4869,-9.4959,-9.4957,-9.5009,-9.5042,-9.5043,-9.4988,-9.5082,-9.5108,-9.5297,-9.5421,-9.5184,-9.5197,-9.5795,-9.5808,-9.582,-9.6,0,0,0,0,0,0,-9.4609,-9.4655,-9.4749,-9.4815,-9.4856,-9.5126,-9.4966,-9.4966,-9.5034,-9.5019,-9.5089,-9.5093,-9.5078,-9.5277,-9.5311,-9.5436,-9.5208,-9.5784,-9.5801,-9.5816,-9.5983,-9.6018,-9.6047,0,0,0,0,0,-9.4594,-9.4792,-9.4755,-9.4792,-9.4975,-9.5133,-9.5156,-9.5136,-9.5045,-9.5139,-9.5159,-9.5091,-9.5402,-9.5298,-9.5334,-9.5466,-9.5776,-9.5796,-9.5815,-9.5969,-9.6011,-9.6047,0,0,0,0,0,0,-9.4738,-9.48,-9.4759,-9.4985,-9.5055,-9.5112,-9.5231,-9.5181,-9.5277,-9.5258,-9.5227,-9.5244,-9.5443,-9.5472,-9.5355,-9.5704,-9.5574,-9.5602,-9.5679,-9.5719,-9.575,-9.5739,-9.5219,0,0,0,0,0,-9.4797,-9.4922,-9.4968,-9.5163,-9.52,-9.521,-9.5278,-9.5257,-9.5327,-9.5355,-9.5389,-9.5458,-9.5571,-9.5646,-9.5752,-9.5986,-9.5999,-9.6094,-9.6126,-9.6152,-9.6177,-9.6303,-9.6346,-9.589,-9.5889,-9.5889,0,0,-9.4918,-9.4967,-9.5048,-9.5193,-9.5245,-9.5374,-9.5236,-9.5377,-9.5472,-9.5375,-9.5557,-9.5585,-9.5659,-9.5872,-9.5967,-9.5903,-9.6306,-9.6177,-9.6198,-9.6209,-9.6328,-9.6371,-9.6409,-9.5903,-9.59,-9.5898,0,0,-9.5205,-9.5256,-9.5424,-9.5479,-9.5559,-9.5564,-9.5604,-9.5669,-9.5685,-9.5867,-9.5797,-9.5907,-9.6103,-9.6159,-9.6213,-9.6521,-9.6461,-9.6555,-9.6723,-9.6846,-9.6882,-9.6914,-9.7024,-9.7064,-9.658,-9.658,-9.6581,0,-9.5345,-9.554,-9.5515,-9.5664,-9.5729,-9.5649,-9.5818,-9.5871,-9.5982,-9.6028,-9.5954,-9.6198,-9.6242,-9.6467,-9.6543,-9.6589,-9.6633,-9.6548,-9.688,-9.6911,-9.694,-9.7045,-9.7087,-9.6591,-9.659,-9.6589,-9.6588,0,-9.5708,-9.5843,-9.5968,-9.608,-9.6159,-9.6317,-9.6315,-9.6397,-9.6368,-9.638,-9.6565,-9.6616,-9.673,-9.6782,-9.6754,-9.7003,-9.696,-9.6884,-9.6752,-9.6995,-9.7093,-9.7133,-9.6607,-9.6603,-9.66,-9.6597,0,0,-9.6092,-9.6188,-9.6235,-9.6285,-9.6367,-9.647,-9.6623,-9.6737,-9.6809,-9.6886,-9.7013,-9.718,-9.711,-9.7172,-9.7149,-9.7257,-9.7498,-9.7167,-9.7168,-9.7227,-9.7775,-9.7833,-9.788,-9.7458,-9.7466,-9.7472,-9.7769,0,-9.6384,-9.6654,-9.6637,-9.6889,-9.7013,-9.6939,-9.7071,-9.7135,-9.715,-9.7255,-9.7269,-9.739,-9.7288,-9.7324,-9.7428,-9.7447,-9.7608,-9.7425,-9.7575,-9.7581,-9.7561,-9.7931,-9.7994,-9.8272,-9.7807,-9.7813,-9.7818,0,-9.6762,-9.6856,-9.7122,-9.7186,-9.7238,-9.7358,-9.7461,-9.7563,-9.7633,-9.7636,-9.7705,-9.7664,-9.7816,-9.768,-9.7888,-9.7764,-9.7824,-9.7842,-9.7852,-9.7867,-9.7715,-9.7956,-9.836,-9.8402,-9.7878,-9.7873,-9.7869,0,-9.7017,-9.7209,-9.7394,-9.7438,-9.7517,-9.7603,-9.764,-9.7702,-9.7772,-9.786,-9.7905,-9.801,-9.8067,-9.8148,-9.8136,-9.8038,-9.8348,-9.8211,-9.8353,-9.8354,-9.8423,-9.8419,-9.8843,-9.846,-9.8459,-9.8459,-9.8458,0,-9.7346,-9.7512,-9.7509,-9.7623,-9.7806,-9.7782,-9.7963,-9.7989,-9.8045,-9.8161,-9.81,-9.8209,-9.8186,-9.8294,-9.8285,-9.8458,-9.8484,-9.849,-9.8486,-9.8497,-9.8496,-9.8536,-9.8517,-9.847,-9.8467,-9.8465,-9.8463,0,-9.7663,-9.7668,-9.7864,-9.7923,-9.7941,-9.8074,-9.8123,-9.8229,-9.8238,-9.8385,-9.8418,-9.8432,-9.8556,-9.8551,-9.8691,-9.8684,-9.8898,-9.8871,-9.8876,-9.8871,-9.9015,-9.9002,-9.948,-9.9542,-9.9117,-9.9122,-9.9125,0,-9.7874,-9.8,-9.8073,-9.8148,-9.819,-9.831,-9.8382,-9.8362,-9.8439,-9.8528,-9.8623,-9.8741,-9.8836,-9.9036,-9.9057,-9.9164,-9.9139,-9.9299,-9.9154,-9.9161,-9.9142,-9.9136,-9.9148,-9.9328,-9.9333,-9.9337,-9.934,0,-9.8248,-9.8244,-9.835,-9.8459,-9.8546,-9.863,-9.8706,-9.8769,-9.8758,-9.8846,-9.8973,-9.9047,-9.919,-9.9308,-9.941,-9.9444,-9.9391,-9.9385,-9.9424,-9.9437,-9.9435,-9.9439,-9.8955,-9.9374,-9.9371,-9.9368,-9.9367,-9.9365,-9.8518,-9.8627,-9.8696,-9.8817,-9.8872,-9.8945,-9.9048,-9.9071,-9.9178,-9.9295,-9.9275,-9.9418,-9.9482,-9.9614,-9.9658,-9.9767,-9.971,-9.9766,-9.978,-9.9795,-9.9812,-9.9417,-9.9785,-9.9784,-9.9783,-9.9782,-9.9781,0,-9.889,-9.8931,-9.9042,-9.9152,-9.9247,-9.9189,-9.927,-9.9352,-9.948,-9.9545,-9.964,-9.9786,-9.99,-9.993,-10.0039,-10.0121,-10.0099,-10.015,-10.0144,-10.0153,-9.9856,-9.9812,-10.0166,-10.0166,-10.0166,-10.0166,-10.0166,-10.0166,-9.9095,-9.9276,-9.9281,-9.9488,-9.9526,-9.9668,-9.9719,-9.9785,-9.9838,-10.0004,-10.01,-10.0119,-10.017,-10.0282,-10.0384,-10.0389,-10.0433,-10.0495,-10.049,-10.0213,-10.0174,-10.0137,-10.0096,-10.0504,-10.0504,-10.0778,-10.0781,-10.0783]}]]